Volver al catálogo

STARLINK-11294

ActivoComunicacionesVLEO
NORAD 61054·PAYLOAD·🇺🇸 United States

Lanzado Sep 13, 2024 desde Vandenberg Space Force Base

Loading…

Próximos Pases (próximas 24 horas)

TLE

ActualizadoSource: CelesTrak SupGP

Época: Sep 15, 2026, 03:40 UTC

1 61054C 24164E   26258.15326389 -.00000395  00000+0 -32536-5 0  2583
2 61054  53.1565  97.0730 0000978  79.8815 118.9756 15.69721280    10

Sigue STARLINK-11294 en tiempo real con AllMySat

Download on the App Store